| time (UTC) | temp C | wind direction | speed KPH | gust KPH | rain 1hr cm | rain 24hr cm | rain mn cm | humidity % | barometer mb |
| 20260504001016 | 12 | 0.0 | 1.6 | 0.00 | 0.00 | 0.00 | 56 | 1012.0 | |
| 20260504000016 | 12 | 203 | 1.6 | 11.3 | 0.00 | 0.00 | 0.00 | 55 | 1011.9 |
| 20260503235056 | 13 | 203 | 1.6 | 4.8 | 0.00 | 0.00 | 0.00 | 54 | 1011.9 |
| 20260503234017 | 13 | 0.0 | 4.8 | 0.00 | 0.00 | 0.00 | 53 | 1012.2 | |
| 20260503233016 | 13 | 203 | 1.6 | 11.3 | 0.00 | 0.00 | 0.00 | 53 | 1012.1 |
| 20260503232016 | 13 | 203 | 1.6 | 8.0 | 0.00 | 0.00 | 0.00 | 52 | 1012.1 |
| 20260503231037 | 13 | 203 | 1.6 | 6.4 | 0.00 | 0.00 | 0.00 | 52 | 1012.2 |
| 20260503230016 | 13 | 203 | 1.6 | 12.9 | 0.00 | 0.00 | 0.00 | 52 | 1012.2 |
| 20260503225016 | 14 | 180 | 3.2 | 12.9 | 0.00 | 0.00 | 0.00 | 53 | 1012.4 |
| 20260503224016 | 14 | 180 | 3.2 | 11.3 | 0.00 | 0.00 | 0.00 | 50 | 1012.4 |
| 20260503223016 | 14 | 180 | 3.2 | 20.9 | 0.00 | 0.00 | 0.00 | 48 | 1012.4 |
| 20260503222016 | 15 | 225 | 1.6 | 4.8 | 0.00 | 0.00 | 0.00 | 51 | 1012.6 |
| 20260503221016 | 14 | 225 | 4.8 | 22.5 | 0.00 | 0.00 | 0.00 | 50 | 1012.5 |
| 20260503220016 | 14 | 180 | 3.2 | 8.0 | 0.00 | 0.00 | 0.00 | 51 | 1012.6 |
| 20260503215016 | 14 | 203 | 1.6 | 4.8 | 0.00 | 0.00 | 0.00 | 51 | 1012.7 |
| 20260503214016 | 15 | 225 | 3.2 | 9.7 | 0.00 | 0.00 | 0.00 | 49 | 1012.7 |
| 20260503213036 | 15 | 225 | 1.6 | 6.4 | 0.00 | 0.00 | 0.00 | 50 | 1012.8 |
| 20260503212016 | 15 | 248 | 6.4 | 12.9 | 0.00 | 0.00 | 0.00 | 49 | 1012.7 |
| 20260503211016 | 15 | 248 | 1.6 | 4.8 | 0.00 | 0.00 | 0.00 | 52 | 1012.9 |
| 20260503210016 | 15 | 203 | 3.2 | 14.5 | 0.00 | 0.00 | 0.00 | 48 | 1012.7 |
| 20260503205016 | 15 | 203 | 3.2 | 11.3 | 0.00 | 0.00 | 0.00 | 49 | 1012.7 |
| 20260503204016 | 15 | 248 | 3.2 | 11.3 | 0.00 | 0.00 | 0.00 | 48 | 1012.8 |
| 20260503203016 | 16 | 180 | 3.2 | 14.5 | 0.00 | 0.00 | 0.00 | 50 | 1012.9 |
| 20260503202016 | 15 | 180 | 4.8 | 14.5 | 0.00 | 0.00 | 0.00 | 50 | 1013.1 |
| 20260503201016 | 15 | 248 | 3.2 | 14.5 | 0.00 | 0.00 | 0.00 | 49 | 1013.2 |
| 20260503200016 | 15 | 180 | 1.6 | 8.0 | 0.00 | 0.00 | 0.00 | 54 | 1013.4 |
| 20260503195016 | 15 | 203 | 4.8 | 19.3 | 0.00 | 0.00 | 0.00 | 51 | 1013.6 |
| 20260503194016 | 15 | 203 | 3.2 | 9.7 | 0.00 | 0.00 | 0.00 | 50 | 1013.8 |
| 20260503193036 | 15 | 203 | 6.4 | 29.0 | 0.00 | 0.00 | 0.00 | 45 | 1013.8 |
| 20260503192016 | 15 | 248 | 4.8 | 14.5 | 0.00 | 0.00 | 0.00 | 50 | 1014.1 |
| 20260503191016 | 15 | 248 | 3.2 | 12.9 | 0.00 | 0.00 | 0.00 | 48 | 1014.2 |
| 20260503190016 | 15 | 248 | 8.0 | 16.1 | 0.00 | 0.00 | 0.00 | 46 | 1014.4 |
| 20260503185016 | 16 | 203 | 4.8 | 16.1 | 0.00 | 0.00 | 0.00 | 45 | 1014.5 |
| 20260503184016 | 16 | 248 | 6.4 | 25.7 | 0.00 | 0.00 | 0.00 | 49 | 1014.7 |
| 20260503183016 | 15 | 270 | 6.4 | 17.7 | 0.00 | 0.00 | 0.00 | 45 | 1014.6 |
| 20260503182016 | 15 | 248 | 6.4 | 14.5 | 0.00 | 0.00 | 0.00 | 52 | 1014.9 |
| 20260503181116 | 15 | 248 | 3.2 | 11.3 | 0.00 | 0.00 | 0.00 | 52 | 1014.9 |
| 20260503180016 | 15 | 248 | 3.2 | 12.9 | 0.00 | 0.00 | 0.00 | 51 | 1015.1 |
| 20260503175016 | 15 | 270 | 9.7 | 22.5 | 0.00 | 0.00 | 0.00 | 47 | 1015.1 |
| 20260503174016 | 15 | 248 | 4.8 | 16.1 | 0.00 | 0.00 | 0.00 | 55 | 1015.3 |
| 20260503173016 | 13 | 270 | 4.8 | 12.9 | 0.00 | 0.00 | 0.00 | 51 | 1015.4 |
| 20260503172016 | 14 | 270 | 6.4 | 20.9 | 0.00 | 0.00 | 0.00 | 49 | 1015.6 |
| 20260503171036 | 14 | 270 | 8.0 | 19.3 | 0.00 | 0.00 | 0.00 | 50 | 1015.7 |
| 20260503131015 | 7 | 180 | 1.6 | 6.4 | 0.00 | 0.03 | 0.00 | 71 | 1017.0 |
| 20260503081017 | 0 | 0.0 | 0.0 | 0.00 | 0.03 | 0.00 | 95 | 1015.7 | |
| 20260503072017 | 0 | 0.0 | 0.0 | 0.00 | 0.03 | 0.00 | 94 | 1015.7 | |
| 20260503071017 | 0 | 0.0 | 0.0 | 0.00 | 0.03 | 0.00 | 94 | 1015.6 | |
| 20260503070111 | 0 | 0.0 | 0.0 | 0.00 | 0.03 | 0.00 | 93 | 1015.6 | |
| 20260503055017 | 1 | 0.0 | 0.0 | 0.00 | 0.03 | 0.00 | 90 | 1015.9 | |
| 20260503054017 | 2 | 0.0 | 0.0 | 0.00 | 0.03 | 0.00 | 89 | 1016.1 | |
| 20260503053017 | 2 | 0.0 | 0.0 | 0.00 | 0.03 | 0.00 | 89 | 1016.1 | |
| 20260503052017 | 2 | 0.0 | 0.0 | 0.00 | 0.03 | 0.00 | 89 | 1016.1 | |
| 20260503051017 | 3 | 0.0 | 0.0 | 0.00 | 0.03 | 0.00 | 88 | 1016.1 | |
| 20260503050017 | 3 | 0.0 | 0.0 | 0.00 | 0.03 | 0.00 | 89 | 1016.0 | |
| 20260503045057 | 3 | 0.0 | 0.0 | 0.00 | 0.03 | 0.00 | 90 | 1016.0 | |
| 20260503044017 | 3 | 0.0 | 0.0 | 0.00 | 0.03 | 0.00 | 91 | 1016.2 | |
| 20260503043017 | 3 | 0.0 | 0.0 | 0.00 | 0.03 | 0.00 | 90 | 1016.1 | |
| 20260503042017 | 3 | 0.0 | 0.0 | 0.00 | 0.03 | 0.00 | 90 | 1016.1 | |
| 20260503041037 | 3 | 0.0 | 0.0 | 0.00 | 0.03 | 0.00 | 89 | 1016.2 | |
| 20260503040017 | 3 | 0.0 | 0.0 | 0.00 | 0.03 | 0.03 | 89 | 1016.2 | |
| 20260503035016 | 3 | 0.0 | 0.0 | 0.00 | 0.03 | 0.03 | 89 | 1016.3 | |
| 20260503034016 | 3 | 0.0 | 0.0 | 0.00 | 0.03 | 0.03 | 89 | 1016.2 | |
| 20260503033016 | 3 | 0.0 | 0.0 | 0.00 | 0.03 | 0.03 | 89 | 1016.2 | |
| 20260503032016 | 3 | 0.0 | 0.0 | 0.00 | 0.03 | 0.03 | 90 | 1016.3 | |
| 20260503031016 | 3 | 0.0 | 0.0 | 0.00 | 0.03 | 0.03 | 90 | 1016.4 | |
| 20260503030016 | 3 | 0.0 | 0.0 | 0.00 | 0.03 | 0.03 | 90 | 1016.4 | |
| 20260503025016 | 3 | 0.0 | 0.0 | 0.00 | 0.03 | 0.03 | 90 | 1016.4 | |
| 20260503024036 | 3 | 0.0 | 0.0 | 0.00 | 0.03 | 0.03 | 90 | 1016.5 | |
| 20260503023016 | 3 | 0.0 | 0.0 | 0.00 | 0.03 | 0.03 | 91 | 1016.5 | |
| 20260503022016 | 3 | 0.0 | 0.0 | 0.00 | 0.03 | 0.03 | 91 | 1016.6 | |
| 20260503021016 | 3 | 0.0 | 0.0 | 0.00 | 0.03 | 0.03 | 90 | 1016.5 | |
| 20260503020036 | 3 | 0.0 | 0.0 | 0.00 | 0.03 | 0.03 | 90 | 1016.6 | |
| 20260503015016 | 3 | 0.0 | 0.0 | 0.00 | 0.03 | 0.03 | 90 | 1016.5 | |
| 20260503014016 | 3 | 0.0 | 0.0 | 0.00 | 0.03 | 0.03 | 89 | 1016.5 | |
| 20260503013016 | 3 | 0.0 | 0.0 | 0.00 | 0.03 | 0.03 | 88 | 1016.6 | |
| 20260503012036 | 3 | 0.0 | 0.0 | 0.00 | 0.03 | 0.03 | 87 | 1016.5 | |
| 20260503011016 | 3 | 0.0 | 0.0 | 0.00 | 0.03 | 0.03 | 87 | 1016.5 | |
| 20260503010016 | 4 | 0.0 | 0.0 | 0.00 | 0.03 | 0.03 | 86 | 1016.5 | |
| 20260503005036 | 4 | 0.0 | 0.0 | 0.00 | 0.03 | 0.03 | 85 | 1016.5 | |
| 20260503004016 | 4 | 0.0 | 0.0 | 0.00 | 0.03 | 0.03 | 84 | 1016.4 | |
| 20260503003016 | 5 | 0.0 | 0.0 | 0.00 | 0.03 | 0.03 | 84 | 1016.4 | |
| 20260503002016 | 5 | 0.0 | 0.0 | 0.00 | 0.03 | 0.03 | 82 | 1016.3 |